When you browse on this site, cookies collect data to enhance your experience and personalize the content and advertising you see.
Visit our Privacy Policy to learn more. By continuing to use the site, you agree to this use of cookies and data.
  • în România
  • Lista ţărilor
  • Pe 7 zile
  • Temperatura apei
  • Hartă satelitară
  • Meteo pe hartă
  • Widget-uri
  • user-avatar
    Intrare

    Meteo pe oră la Ciudad Bolívar

    Astăzi, 18 Decembrie, Marţi

    Timp Temperatura Precipitaţii Vânt Presiune Umiditate
    00:00 +27°C° 0 mm 4 m/s 754 mmHg 73%
    01:00 +26°C° 0 mm 3 m/s 754 mmHg 77%
    02:00 +25°C° 0 mm 3 m/s 754 mmHg 80%
    03:00 +25°C° 0 mm 3 m/s 754 mmHg 83%
    04:00 +25°C° 0 mm 2 m/s 754 mmHg 86%
    05:00 +24°C° 0 mm 2 m/s 754 mmHg 88%
    06:00 +25°C° 0 mm 2 m/s 755 mmHg 85%
    07:00 +26°C° 0 mm 3 m/s 755 mmHg 81%
    08:00 +27°C° 0 mm 3 m/s 755 mmHg 77%
    09:00 +29°C° 0 mm 3 m/s 755 mmHg 68%
    10:00 +30°C° 0 mm 4 m/s 755 mmHg 58%
    11:00 +33°C° 0 mm 4 m/s 755 mmHg 49%
    12:00 +35°C° 0 mm 4 m/s 754 mmHg 45%
    13:00 +36°C° 0 mm 4 m/s 753 mmHg 40%
    14:00 +37°C° 0 mm 3 m/s 752 mmHg 36%
    15:00 +36°C° 0 mm 4 m/s 752 mmHg 38%
    16:00 +36°C° 0 mm 4 m/s 751 mmHg 39%
    17:00 +36°C° 0 mm 4 m/s 751 mmHg 40%
    18:00 +34°C° 0 mm 4 m/s 751 mmHg 47%
    19:00 +33°C° 0 mm 5 m/s 752 mmHg 54%
    20:00 +30°C° 0 mm 5 m/s 752 mmHg 61%
    21:00 +29°C° 0 mm 5 m/s 753 mmHg 65%
    22:00 +29°C° 0 mm 5 m/s 753 mmHg 69%
    23:00 +28°C° 0 mm 5 m/s 754 mmHg 74%

    Mâine, 19 Decembrie, Miercuri

    Timp Temperatura Precipitaţii Vânt Presiune Umiditate
    00:00 +27°C° 0 mm 4 m/s 754 mmHg 76%
    01:00 +27°C° 0 mm 4 m/s 754 mmHg 78%
    02:00 +26°C° 0 mm 4 m/s 754 mmHg 80%
    03:00 +26°C° 0 mm 4 m/s 753 mmHg 82%
    04:00 +26°C° 0 mm 3 m/s 753 mmHg 84%
    05:00 +26°C° 0 mm 3 m/s 753 mmHg 85%
    06:00 +26°C° 0 mm 3 m/s 754 mmHg 82%
    07:00 +27°C° 0 mm 3 m/s 754 mmHg 79%
    08:00 +28°C° 0 mm 4 m/s 755 mmHg 76%
    09:00 +29°C° 0 mm 4 m/s 755 mmHg 68%
    10:00 +32°C° 0 mm 4 m/s 755 mmHg 60%
    11:00 +34°C° 0 mm 4 m/s 755 mmHg 52%
    12:00 +34°C° 0 mm 4 m/s 754 mmHg 50%
    13:00 +35°C° 0 mm 4 m/s 753 mmHg 47%
    14:00 +36°C° 0 mm 4 m/s 752 mmHg 45%
    15:00 +35°C° 0 mm 4 m/s 751 mmHg 46%
    16:00 +35°C° 0 mm 5 m/s 751 mmHg 48%
    17:00 +35°C° 0 mm 5 m/s 750 mmHg 49%
    18:00 +33°C° 0 mm 5 m/s 751 mmHg 56%
    19:00 +32°C° 0 mm 5 m/s 752 mmHg 62%
    20:00 +29°C° 0 mm 5 m/s 752 mmHg 69%
    21:00 +29°C° 0 mm 5 m/s 753 mmHg 72%
    22:00 +28°C° 0 mm 5 m/s 753 mmHg 75%
    23:00 +27°C° 0 mm 5 m/s 753 mmHg 78%

    Poimâine, 20 Decembrie, Joi

    Timp Temperatura Precipitaţii Vânt Presiune Umiditate
    00:00 +27°C° 0 mm 4 m/s 753 mmHg 80%
    01:00 +27°C° 0 mm 4 m/s 753 mmHg 81%
    02:00 +26°C° 0 mm 4 m/s 753 mmHg 83%
    03:00 +26°C° 0 mm 4 m/s 753 mmHg 84%
    04:00 +26°C° 0 mm 3 m/s 753 mmHg 84%
    05:00 +26°C° 0 mm 3 m/s 753 mmHg 85%
    06:00 +27°C° 0 mm 4 m/s 753 mmHg 82%
    07:00 +27°C° 0 mm 4 m/s 754 mmHg 78%
    08:00 +28°C° 0 mm 5 m/s 754 mmHg 75%
    09:00 +29°C° 0.1 mm 5 m/s 754 mmHg 69%
    10:00 +32°C° 0.1 mm 5 m/s 755 mmHg 62%
    11:00 +33°C° 0.1 mm 5 m/s 755 mmHg 56%
    12:00 +34°C° 0 mm 5 m/s 754 mmHg 52%
    13:00 +35°C° 0 mm 4 m/s 752 mmHg 48%
    14:00 +36°C° 0 mm 4 m/s 751 mmHg 45%
    15:00 +35°C° 0 mm 4 m/s 751 mmHg 47%
    16:00 +34°C° 0 mm 5 m/s 751 mmHg 49%
    17:00 +34°C° 0 mm 5 m/s 750 mmHg 52%
    18:00 +33°C° 0 mm 5 m/s 751 mmHg 57%
    19:00 +30°C° 0 mm 5 m/s 752 mmHg 61%
    20:00 +29°C° 0 mm 5 m/s 752 mmHg 66%
    21:00 +29°C° 0 mm 5 m/s 753 mmHg 69%
    22:00 +28°C° 0 mm 5 m/s 753 mmHg 73%
    23:00 +27°C° 0 mm 5 m/s 753 mmHg 76%

    21 Decembrie, Vineri

    Timp Temperatura Precipitaţii Vânt Presiune Umiditate
    00:00 +27°C° 0 mm 4 m/s 753 mmHg 78%
    01:00 +27°C° 0 mm 4 m/s 753 mmHg 81%
    02:00 +26°C° 0 mm 4 m/s 752 mmHg 84%
    03:00 +26°C° 0 mm 3 m/s 752 mmHg 85%
    04:00 +25°C° 0 mm 3 m/s 752 mmHg 86%
    05:00 +25°C° 0 mm 3 m/s 752 mmHg 87%
    06:00 +26°C° 0 mm 3 m/s 753 mmHg 82%
    07:00 +27°C° 0 mm 4 m/s 753 mmHg 77%
    08:00 +28°C° 0 mm 4 m/s 754 mmHg 72%
    09:00 +29°C° 0 mm 5 m/s 754 mmHg 64%
    10:00 +32°C° 0 mm 5 m/s 754 mmHg 56%
    11:00 +34°C° 0 mm 5 m/s 754 mmHg 48%
    12:00 +35°C° 0 mm 5 m/s 753 mmHg 44%
    13:00 +36°C° 0 mm 5 m/s 752 mmHg 41%
    14:00 +37°C° 0 mm 5 m/s 751 mmHg 37%
    15:00 +36°C° 0 mm 5 m/s 751 mmHg 39%
    16:00 +36°C° 0 mm 5 m/s 750 mmHg 40%
    17:00 +35°C° 0 mm 5 m/s 750 mmHg 41%
    18:00 +34°C° 0 mm 4 m/s 750 mmHg 45%
    19:00 +33°C° 0 mm 4 m/s 751 mmHg 50%
    20:00 +32°C° 0 mm 4 m/s 752 mmHg 54%
    21:00 +30°C° 0 mm 4 m/s 752 mmHg 59%
    22:00 +29°C° 0 mm 5 m/s 753 mmHg 63%
    23:00 +28°C° 0 mm 5 m/s 753 mmHg 68%

    22 Decembrie, Sâmbătă

    Timp Temperatura Precipitaţii Vânt Presiune Umiditate
    00:00 +27°C° 0 mm 5 m/s 753 mmHg 72%
    01:00 +27°C° 0 mm 4 m/s 753 mmHg 75%
    02:00 +26°C° 0 mm 4 m/s 752 mmHg 79%
    03:00 +26°C° 0 mm 4 m/s 752 mmHg 81%
    04:00 +25°C° 0 mm 4 m/s 753 mmHg 83%
    05:00 +25°C° 0 mm 3 m/s 753 mmHg 86%
    06:00 +25°C° 0 mm 4 m/s 753 mmHg 82%
    07:00 +26°C° 0 mm 4 m/s 754 mmHg 78%
    08:00 +27°C° 0 mm 5 m/s 755 mmHg 74%
    09:00 +29°C° 0 mm 5 m/s 755 mmHg 65%
    10:00 +32°C° 0 mm 5 m/s 755 mmHg 55%
    11:00 +34°C° 0 mm 4 m/s 755 mmHg 45%
    12:00 +35°C° 0 mm 4 m/s 753 mmHg 40%
    13:00 +36°C° 0 mm 4 m/s 752 mmHg 35%
    14:00 +37°C° 0 mm 4 m/s 751 mmHg 30%
    15:00 +36°C° 0 mm 4 m/s 751 mmHg 31%
    16:00 +36°C° 0 mm 4 m/s 751 mmHg 32%
    17:00 +36°C° 0 mm 4 m/s 750 mmHg 33%
    18:00 +34°C° 0 mm 4 m/s 751 mmHg 38%
    19:00 +33°C° 0 mm 4 m/s 751 mmHg 44%
    20:00 +30°C° 0 mm 4 m/s 752 mmHg 50%
    21:00 +29°C° 0 mm 4 m/s 752 mmHg 54%
    22:00 +28°C° 0 mm 4 m/s 752 mmHg 59%
    23:00 +28°C° 0 mm 5 m/s 753 mmHg 63%

    23 Decembrie, Duminică

    Timp Temperatura Precipitaţii Vânt Presiune Umiditate
    00:00 +27°C° 0 mm 4 m/s 753 mmHg 68%
    01:00 +26°C° 0 mm 4 m/s 753 mmHg 72%
    02:00 +26°C° 0 mm 4 m/s 753 mmHg 77%
    03:00 +25°C° 0 mm 3 m/s 753 mmHg 80%
    04:00 +25°C° 0 mm 3 m/s 753 mmHg 84%
    05:00 +24°C° 0 mm 3 m/s 753 mmHg 87%
    06:00 +25°C° 0 mm 3 m/s 754 mmHg 83%
    07:00 +26°C° 0 mm 3 m/s 754 mmHg 80%
    08:00 +26°C° 0 mm 4 m/s 755 mmHg 76%
    09:00 +28°C° 0 mm 4 m/s 755 mmHg 65%
    10:00 +32°C° 0 mm 4 m/s 754 mmHg 55%
    11:00 +34°C° 0 mm 4 m/s 754 mmHg 44%
    12:00 +35°C° 0 mm 4 m/s 753 mmHg 40%
    13:00 +36°C° 0 mm 4 m/s 752 mmHg 36%
    14:00 +37°C° 0 mm 4 m/s 751 mmHg 32%
    15:00 +37°C° 0 mm 4 m/s 751 mmHg 33%
    16:00 +36°C° 0 mm 4 m/s 750 mmHg 34%
    17:00 +36°C° 0 mm 4 m/s 750 mmHg 35%
    18:00 +34°C° 0 mm 4 m/s 750 mmHg 41%
    19:00 +33°C° 0 mm 4 m/s 751 mmHg 47%
    20:00 +30°C° 0 mm 4 m/s 751 mmHg 53%
    21:00 +30°C° 0 mm 5 m/s 752 mmHg 58%
    22:00 +29°C° 0 mm 5 m/s 752 mmHg 63%
    23:00 +28°C° 0 mm 5 m/s 753 mmHg 68%
    Arată mai mult